This is the latest recevied weather packets stored in our database for station/object CA3SQH-10. If no packets are shown the sender has not sent any weather packets the latest 1 day(s).
| Time | Temp. | Humidity | Pressure | Rain* | Wind** | Luminosity | Snow |
|---|---|---|---|---|---|---|---|
| 1777895913 | 16.11° C | 49% | 938.4 hPa | - | - | - | - |
| 1777895013 | 16.11° C | 48% | 938.5 hPa | - | - | - | - |
| 1777894113 | 16.11° C | 48% | 938.3 hPa | - | - | - | - |
| 1777893212 | 15.56° C | 49% | 938.3 hPa | - | - | - | - |
| 1777892312 | 16.11° C | 48% | 938.3 hPa | - | - | - | - |
| 1777891412 | 16.11° C | 49% | 938.2 hPa | - | - | - | - |
| 1777890512 | 15.56° C | 51% | 938.1 hPa | - | - | - | - |
| 1777889612 | 16.11° C | 48% | 938.1 hPa | - | - | - | - |
| 1777888711 | 16.11° C | 48% | 938 hPa | - | - | - | - |
| 1777887811 | 16.11° C | 49% | 938.1 hPa | - | - | - | - |
| 1777886911 | 16.11° C | 47% | 938.1 hPa | - | - | - | - |
| 1777886011 | 16.11° C | 47% | 938.1 hPa | - | - | - | - |
| 1777885110 | 16.11° C | 48% | 937.9 hPa | - | - | - | - |
| 1777884199 | 16.11° C | 49% | 937.9 hPa | - | - | - | - |
| 1777883299 | 16.11° C | 48% | 937.7 hPa | - | - | - | - |
| 1777882398 | 16.11° C | 48% | 938 hPa | - | - | - | - |
| 1777881498 | 16.11° C | 48% | 938.1 hPa | - | - | - | - |
| 1777880598 | 16.11° C | 48% | 938.3 hPa | - | - | - | - |
| 1777879698 | 16.11° C | 48% | 938.4 hPa | - | - | - | - |
| 1777878798 | 16.11° C | 49% | 938.8 hPa | - | - | - | - |
| 1777877897 | 16.11° C | 48% | 938.6 hPa | - | - | - | - |
| 1777876997 | 16.67° C | 42% | 938.6 hPa | - | - | - | - |
| 1777876097 | 16.67° C | 41% | 938.6 hPa | - | - | - | - |
| 1777875197 | 16.67° C | 40% | 938.8 hPa | - | - | - | - |
| 1777874296 | 16.67° C | 42% | 939.1 hPa | - | - | - | - |
* Rain since midnight (hover to see other rain measurements)
** Current wind speed in m/s (hover to see current wind gust speed)